Regional Weather Roundup
Issued by NWS Newport/Morehead, NC

Home | Current Version | Previous Version | Text Only | Print | Product List | Glossary On
Versions: 1 2 3 4 5 6 7 8 9 10 11 12 13 14 15 16 17 18 19 20 21 22 23 24 25 26 27 28 29 30 31 32 33 34 35 36 37 38 39 40 41 42 43 44 45 46 47 48 49 50
000
ASUS42 KMHX 290022
RWRMHX
WEATHER ROUNDUP FOR EASTERN NORTH CAROLINA
NATIONAL WEATHER SERVICE NEWPORT/MOREHEAD CITY NC
700 PM EST WED JAN 28 2015

NOTE: "FAIR" INDICATES FEW OR NO CLOUDS BELOW 12,000 FEET
WITH NO SIGNIFICANT WEATHER AND/OR OBSTRUCTIONS TO VISIBILITY

NCZ015>017-031-032-045>047-102-103-290100-
NORTH COAST

CITY           SKY/WX    TMP DP  RH WIND       PRES   REMARKS
EDENTON        CLEAR     33  15  46 NW3       30.28R
ELIZABETH CITY CLEAR     31  12  45 NW6       30.27R
KITTY HAWK     CLEAR     36  13  40 NW7       30.24R
MANTEO         CLEAR     37  12  35 NW12G18   30.26R

$$

NCZ045>047-081-094-103-104-290100-
CENTRAL COAST

CITY           SKY/WX    TMP DP  RH WIND       PRES   REMARKS
FRISCO         CLEAR     38  18  44 NW10G17   30.25R
SWANQUARTER      N/A     34 N/A N/A NW7       30.24

$$

NCZ095-097-098-100-101-290100-
SOUTHERN COAST

CITY           SKY/WX    TMP DP  RH WIND       PRES   REMARKS
BEAUFORT       CLEAR     36  18  48 N7        30.28R
CEDAR ISLAND     N/A     41 N/A N/A NW12G23   30.30
JACKSONVILLE   CLEAR     37  15  40 NW6       30.29R
PINEY ISLAND     N/A    N/A N/A N/A MISG      30.27R
WILMINGTON     CLEAR     35  20  54 N6        30.29R


$$

NCZ011>013-027>030-043-044-078>080-089-090>093-098-290100-
COASTAL PLAIN

CITY           SKY/WX    TMP DP  RH WIND       PRES   REMARKS
AHOSKIE        CLEAR     30  12  46 CALM      30.29R
CLINTON        CLEAR     33  21  63 CALM      30.31R
ELIZABETHTOWN  CLEAR     35  20  54 CALM      30.31R
GOLDSBORO      CLEAR     36  16  44 CALM      30.28R
GREENVILLE     CLEAR     32  19  59 CALM      30.29S
HAVELOCK       CLEAR     37  12  35 NW6       30.29R
KENANSVILLE    CLEAR     29  20  69 CALM      30.31R
KINSTON        CLEAR     30  21  69 CALM      30.30R
NEW BERN       CLEAR     32  17  54 CALM      30.29R
RICHLANDS      CLEAR     28  19  69 CALM      30.30R
ROCKY MOUNT    CLEAR     30  15  53 CALM      30.30R
WASHINGTON     CLEAR     32  16  51 CALM      30.29R
WHITEVILLE     CLEAR     36  19  50 CALM      30.30R

$$

AMZ130-135-150-152-154-156-158-170-250-252-270-ANZ085-086-088-633-658-670-290100-
MARINE OBSERVATIONS

STATION/POSITION TIME  TEMP    WIND        PRES    WAVE   SWELL
                       AIR SEA DIR/SP/G            HT/PER HT/PER
                 (UTC) (F)     (DEG/KT/KT) (MB)    (FT/S) (FT/S)
CHESAPEAKE LIGHT 0000   36     330/ 25/ 27 1024.6
64 E VA BEACH    0000   39 50  340/ 23/ 29 1022.2    9/ 6   5/14
DUCK             0000   38 42  320/ 16/ 18 1023.6
2 E DUCK         0000      42                N/A     4/13   2/13
10 NE DUCK       0000      45                N/A     7/12   3/12
OREGON INLET     0000   36 42  330/  8/ 11 1024.4
13E OREGON INLT  0000      45                N/A     8/11   5/11
HATTERAS CG      0000   40 45  330/ 20/ 23 1024.8
DIAMOND BUOY     0000   41     340/ 17/ 21 1023.6    6/10   5/10
17 S OCRACOKE    NOT AVBL
CAPE LOOKOUT     0000   41     340/ 11/ 13 1025.1
BEAUFORT LAB     0000   39 47  330/  5/  8 1024.4
27 SE WRIGHTSVLE NOT AVBL
5 SE WRIGHTSVLE  0000   44 53  360/ 12/ 16 1025.5
225 S CAPE HAT   NOT AVBL
41 SE CHARLESTON 0000   49 65  350/ 12/ 16 1025.5    4/ 6   3/ 6

$$


USA.gov is the U.S. government's official web portal to all federal, state and local government web resources and services.